Flag Weather past 2 weeks in Leutkirch im Allgäu, Baden-Württemberg, Germany

Now
41 °F

Overcast.


Feels Like: 41 °F
Forecast: 40 / 47 °F
Wind: 2 mph from East

Location: Kempten

Current Time: Nov 24, 2014 at 5:26:57 AM

Latest Report: Nov 24, 2014 at 5:00 AM


Visibility: 13 mi

Pressure: 30.22 "Hg

Humidity: 93%

Dew point: 40 °F

Location of Leutkirch im AllgäuLocation

Historic Weather in Leutkirch im Allgäu — Graph

°F

Leutkirch im Allgäu temperature yesterday

Maximum temperature yesterday: 60 °F (at 2:00 PM)
Minimum temperature yesterday: 31 °F (at 7:00 AM)
Average temperature yesterday: 41 °F

Past Weeks' High & Low Weather Summary

 TemperatureHumidityPressure
High60 °F (Nov 23, 2:00 PM)100% (Nov 15, 8:00 AM)30.37 "Hg (Nov 15, 8:00 AM)
Low28 °F (Nov 20, 5:00 AM)46% (Nov 23, 2:00 PM)29.53 "Hg (Nov 15, 11:00 PM)
Average42 °F88%29.93 "Hg
* Reported Nov 9 3:00 AM — Nov 24 3:00 AM, Leutkirch im Allgäu, Weather by CustomWeather, © 2014

Note: Actual official high and low records may vary slightly from our data, if they occured in-between our weather recording intervals... More about our weather records

Advertising

Leutkirch im Allgäu weather history for previous 24 hours

 ConditionsComfort  
Time TempWeatherWind HumidityBarometerVisibility
3:00 AM
Nov 24
43 °FOvercast.2 mph92%30.20 "Hg19 mi
2:00 AM41 °FOvercast.2 mph91%30.22 "Hg11 mi
1:00 AM41 °FOvercast.1 mph92%30.22 "Hg16 mi
12:00 AM38 °FOvercast.2 mph94%30.24 "Hg19 mi
11:00 PM
Nov 23
37 °FPassing clouds.1 mph95%30.24 "Hg14 mi
9:00 PM39 °FClear.2 mph93%30.23 "Hg19 mi
8:00 PM41 °FClear.2 mph92%30.21 "Hg22 mi
7:00 PM41 °FClear.2 mph92%30.21 "Hg18 mi
6:00 PM45 °FClear.2 mph88%30.19 "Hg25 mi
5:00 PM49 °FClear.2 mph83%30.16 "Hg28 mi
3:00 PM60 °FSunny.1 mph52%30.11 "Hg12 mi
2:00 PM60 °FSunny.1 mph46%30.12 "Hg25 mi
1:00 PM59 °FSunny.1 mph52%30.14 "Hg22 mi
12:00 PM53 °FSunny.1 mph63%30.19 "Hg19 mi
11:00 AM47 °FSunny.2 mph72%30.24 "Hg37 mi
10:00 AM39 °FSunny.2 mph88%30.28 "Hg28 mi
9:00 AM36 °FScattered clouds.3 mph93%30.29 "Hg16 mi
8:00 AM31 °FPassing clouds.2 mph98%30.31 "Hg11 mi
7:00 AM31 °FClear.2 mph98%30.30 "Hg12 mi
6:00 AM31 °FClear.1 mph98%30.28 "Hg12 mi
5:00 AM32 °FClear.2 mph97%30.27 "Hg11 mi
Weather by CustomWeather, © 2014

See weather overviewHow to use our weather pages